Location: Poughquag
(41.6090°N, 73.6820°W)
Time: 03:33:46
(UTC-04:00)

Transit 4A - Pass Details

Date: 29 May 2020
Orbit: 866 x 978 km, 66.8° (Epoch: 06 July)

Event Time Altitude Azimuth Distance (km) Brightness Sun altitude
Rises 02:57:13 0° 213° (SSW) 3,434 - -20.4°
Reaches altitude 10° 02:59:41 10° 215° (SW) 2,502 - -20.1°
Exits shadow 03:03:02 37° 222° (SW) 1,333 8.2 -19.8°
Maximum altitude 03:05:27 76° 301° (WNW) 902 7.8 -19.6°
Drops below altitude 10° 03:11:22 10° 27° (NNE) 2,556 11.4 -19.0°
Sets 03:13:54 0° 29° (NNE) 3,514 12.6 -18.7°
